| time (UTC) | temp F | wind direction | speed knots | gust knots | rain 1hr in | rain 24hr in | rain mn in | humidity % | barometer mb |
| 20260506222218 | 47 | 225 | 0.9 | 4.3 | 0.04 | 0.64 | 0.62 | 97 | 1006.1 |
| 20260506221541 | 47 | 0.0 | 1.7 | 0.04 | 0.64 | 0.62 | 98 | 1006.1 | |
| 20260506221033 | 47 | 0.0 | 0.9 | 0.03 | 0.63 | 0.61 | 97 | 1006.0 | |
| 20260506220548 | 47 | 0.0 | 0.9 | 0.04 | 0.63 | 0.61 | 97 | 1005.7 | |
| 20260506220127 | 47 | 0.0 | 1.7 | 0.03 | 0.62 | 0.60 | 97 | 1005.8 | |
| 20260506215652 | 47 | 23 | 0.9 | 2.6 | 0.04 | 0.62 | 0.60 | 97 | 1005.9 |
| 20260506215215 | 47 | 0 | 1.7 | 3.5 | 0.04 | 0.62 | 0.60 | 96 | 1005.9 |
| 20260506214706 | 47 | 0 | 1.7 | 3.5 | 0.03 | 0.61 | 0.59 | 96 | 1005.8 |
| 20260506214008 | 47 | 338 | 3.5 | 7.8 | 0.04 | 0.61 | 0.59 | 96 | 1006.0 |
| 20260506213528 | 47 | 0 | 3.5 | 8.7 | 0.04 | 0.61 | 0.59 | 95 | 1005.9 |
| 20260506213108 | 48 | 0 | 2.6 | 7.8 | 0.04 | 0.61 | 0.59 | 95 | 1005.9 |
| 20260506212559 | 48 | 0 | 3.5 | 7.8 | 0.03 | 0.60 | 0.58 | 95 | 1005.8 |
| 20260506212203 | 49 | 0 | 1.7 | 5.2 | 0.03 | 0.61 | 0.58 | 95 | 1005.8 |
| 20260506211706 | 49 | 23 | 0.9 | 3.5 | 0.03 | 0.62 | 0.58 | 95 | 1005.7 |
| 20260506211154 | 50 | 338 | 2.6 | 7.0 | 0.03 | 0.63 | 0.58 | 96 | 1005.5 |
| 20260506210716 | 50 | 0 | 2.6 | 4.3 | 0.02 | 0.62 | 0.57 | 96 | 1005.4 |
| 20260506210011 | 51 | 293 | 2.6 | 4.3 | 0.02 | 0.62 | 0.57 | 97 | 1005.6 |
| 20260506205531 | 51 | 0.0 | 1.7 | 0.01 | 0.62 | 0.56 | 98 | 1005.5 | |
| 20260506205055 | 51 | 0.0 | 0.0 | 0.01 | 0.62 | 0.56 | 98 | 1005.3 | |
| 20260506204610 | 51 | 0.0 | 1.7 | 0.01 | 0.63 | 0.56 | 97 | 1005.3 | |
| 20260506204126 | 51 | 0.0 | 0.9 | 0.00 | 0.63 | 0.55 | 97 | 1005.4 | |
| 20260506203645 | 52 | 0.0 | 0.9 | 0.00 | 0.63 | 0.55 | 97 | 1005.3 | |
| 20260506203208 | 52 | 0.0 | 1.7 | 0.00 | 0.63 | 0.55 | 97 | 1005.1 | |
| 20260506202509 | 52 | 0.0 | 0.9 | 0.00 | 0.63 | 0.55 | 97 | 1005.3 | |
| 20260506202018 | 52 | 0.0 | 0.9 | 0.00 | 0.63 | 0.55 | 97 | 1005.2 | |
| 20260506201540 | 52 | 0.0 | 1.7 | 0.01 | 0.63 | 0.55 | 97 | 1005.2 | |
| 20260506201055 | 52 | 0.0 | 0.9 | 0.01 | 0.63 | 0.55 | 98 | 1005.4 | |
| 20260506200623 | 52 | 0.0 | 0.9 | 0.01 | 0.63 | 0.55 | 98 | 1005.4 | |
| 20260506200133 | 52 | 0.0 | 1.7 | 0.01 | 0.63 | 0.55 | 98 | 1005.5 | |
| 20260506195700 | 52 | 0.0 | 0.0 | 0.02 | 0.63 | 0.55 | 98 | 1005.5 | |
| 20260506195215 | 52 | 0.0 | 0.0 | 0.02 | 0.63 | 0.55 | 98 | 1005.6 | |
| 20260506194512 | 52 | 0.0 | 0.9 | 0.03 | 0.63 | 0.55 | 98 | 1005.7 | |
| 20260506194026 | 52 | 0.0 | 0.0 | 0.03 | 0.63 | 0.55 | 99 | 1005.5 | |
| 20260506193551 | 52 | 0.0 | 0.0 | 0.04 | 0.63 | 0.55 | 99 | 1005.6 | |
| 20260506193111 | 52 | 0.0 | 0.9 | 0.04 | 0.63 | 0.55 | 99 | 1005.7 | |
| 20260506192627 | 51 | 0.0 | 0.9 | 0.05 | 0.63 | 0.55 | 98 | 1005.6 | |
| 20260506192146 | 51 | 0.0 | 0.0 | 0.06 | 0.63 | 0.55 | 98 | 1005.6 | |
| 20260506191706 | 51 | 0.0 | 0.9 | 0.06 | 0.62 | 0.54 | 98 | 1005.7 | |
| 20260506191221 | 51 | 23 | 0.9 | 1.7 | 0.07 | 0.62 | 0.54 | 97 | 1005.7 |
| 20260506190525 | 51 | 23 | 0.9 | 1.7 | 0.07 | 0.62 | 0.54 | 97 | 1005.7 |
| 20260506190036 | 51 | 0.0 | 1.7 | 0.08 | 0.62 | 0.54 | 98 | 1005.6 | |
| 20260506185601 | 52 | 0.0 | 0.9 | 0.08 | 0.61 | 0.53 | 98 | 1005.5 | |
| 20260506185135 | 51 | 0.0 | 0.9 | 0.08 | 0.61 | 0.53 | 98 | 1005.7 | |
| 20260506184637 | 51 | 90 | 0.9 | 2.6 | 0.08 | 0.60 | 0.52 | 97 | 1005.7 |
| 20260506184218 | 52 | 0 | 0.9 | 2.6 | 0.09 | 0.60 | 0.52 | 97 | 1006.0 |
| 20260506183709 | 52 | 68 | 0.9 | 1.7 | 0.08 | 0.59 | 0.51 | 97 | 1006.0 |
| 20260506183009 | 52 | 90 | 0.9 | 1.7 | 0.09 | 0.59 | 0.51 | 97 | 1006.0 |
| 20260506182529 | 52 | 0 | 2.6 | 5.2 | 0.09 | 0.58 | 0.50 | 97 | 1006.2 |
| 20260506182108 | 53 | 0 | 3.5 | 10.4 | 0.08 | 0.57 | 0.49 | 97 | 1006.4 |
| 20260506181532 | 54 | 315 | 0.9 | 7.0 | 0.08 | 0.56 | 0.48 | 99 | 1006.4 |
| 20260506181047 | 54 | 0.0 | 1.7 | 0.07 | 0.55 | 0.47 | 100 | 1006.3 | |
| 20260506180607 | 54 | 0.0 | 0.9 | 0.08 | 0.55 | 0.47 | 100 | 1006.3 | |
| 20260506180129 | 54 | 0.0 | 1.7 | 0.07 | 0.54 | 0.46 | 99 | 1006.3 | |
| 20260506175646 | 53 | 0.0 | 0.9 | 0.07 | 0.53 | 0.45 | 99 | 1006.5 | |
| 20260506175203 | 53 | 338 | 1.7 | 3.5 | 0.07 | 0.53 | 0.45 | 99 | 1006.5 |
| 20260506174715 | 53 | 0.0 | 3.5 | 0.07 | 0.52 | 0.44 | 99 | 1006.4 | |
| 20260506174015 | 53 | 0.0 | 0.0 | 0.06 | 0.51 | 0.43 | 99 | 1006.4 | |
| 20260506173602 | 53 | 0.0 | 0.0 | 0.07 | 0.51 | 0.43 | 99 | 1006.3 | |
| 20260506173057 | 53 | 0.0 | 0.0 | 0.06 | 0.50 | 0.42 | 99 | 1006.4 | |
| 20260506172616 | 53 | 0.0 | 0.0 | 0.06 | 0.49 | 0.41 | 99 | 1006.4 | |
| 20260506172130 | 53 | 0.0 | 0.0 | 0.06 | 0.49 | 0.41 | 99 | 1006.3 | |
| 20260506171648 | 53 | 0.0 | 0.0 | 0.05 | 0.48 | 0.40 | 99 | 1006.3 | |
| 20260506171234 | 53 | 0.0 | 0.0 | 0.06 | 0.48 | 0.40 | 99 | 1006.2 | |
| 20260506170508 | 52 | 0.0 | 0.0 | 0.05 | 0.47 | 0.39 | 98 | 1006.2 | |
| 20260506170025 | 52 | 0.0 | 0.0 | 0.05 | 0.47 | 0.39 | 98 | 1006.5 | |
| 20260506165543 | 53 | 0.0 | 0.0 | 0.05 | 0.46 | 0.38 | 99 | 1006.5 | |
| 20260506165100 | 52 | 0.0 | 0.9 | 0.05 | 0.46 | 0.38 | 98 | 1006.5 | |
| 20260506164630 | 52 | 0.0 | 0.9 | 0.05 | 0.45 | 0.37 | 98 | 1006.6 | |
| 20260506164136 | 53 | 0.0 | 0.0 | 0.05 | 0.45 | 0.37 | 98 | 1006.8 | |
| 20260506163705 | 53 | 0.0 | 0.0 | 0.05 | 0.44 | 0.36 | 99 | 1006.6 | |
| 20260506163213 | 53 | 0.0 | 0.9 | 0.06 | 0.44 | 0.36 | 98 | 1007.0 | |
| 20260506162510 | 53 | 0.0 | 0.0 | 0.05 | 0.43 | 0.35 | 98 | 1007.1 | |
| 20260506162052 | 53 | 0.0 | 0.9 | 0.06 | 0.43 | 0.35 | 99 | 1007.0 | |
| 20260506161552 | 53 | 90 | 0.9 | 1.7 | 0.06 | 0.43 | 0.35 | 99 | 1007.1 |
| 20260506161105 | 53 | 0.0 | 1.7 | 0.06 | 0.42 | 0.34 | 99 | 1007.3 | |
| 20260506160621 | 53 | 0.0 | 1.7 | 0.06 | 0.42 | 0.34 | 99 | 1007.3 | |
| 20260506160144 | 53 | 0.0 | 0.9 | 0.07 | 0.42 | 0.34 | 99 | 1007.3 | |
| 20260506155750 | 53 | 0.0 | 1.7 | 0.07 | 0.41 | 0.33 | 99 | 1007.7 | |
| 20260506154513 | 53 | 90 | 0.9 | 1.7 | 0.07 | 0.40 | 0.32 | 99 | 1007.6 |
| 20260506154036 | 53 | 0.0 | 1.7 | 0.07 | 0.40 | 0.32 | 99 | 1007.8 | |
| 20260506153556 | 53 | 0.0 | 0.9 | 0.07 | 0.39 | 0.31 | 99 | 1007.8 | |
| 20260506153108 | 52 | 0.0 | 0.0 | 0.06 | 0.38 | 0.30 | 98 | 1007.7 | |
| 20260506152643 | 53 | 0.0 | 0.0 | 0.07 | 0.38 | 0.30 | 98 | 1007.7 | |
| 20260506152146 | 53 | 0.0 | 0.0 | 0.06 | 0.37 | 0.29 | 99 | 1007.8 | |
| 20260506151705 | 53 | 0.0 | 0.0 | 0.06 | 0.37 | 0.29 | 99 | 1008.0 | |
| 20260506151219 | 53 | 0.0 | 0.0 | 0.05 | 0.36 | 0.28 | 99 | 1007.9 | |
| 20260506150810 | 53 | 0.0 | 0.0 | 0.05 | 0.36 | 0.28 | 99 | 1008.0 | |
| 20260506150033 | 53 | 0.0 | 0.0 | 0.05 | 0.35 | 0.27 | 99 | 1008.0 | |
| 20260506145618 | 53 | 0.0 | 0.0 | 0.04 | 0.34 | 0.26 | 99 | 1008.1 | |
| 20260506145115 | 53 | 0.0 | 0.0 | 0.04 | 0.34 | 0.26 | 99 | 1008.1 | |
| 20260506144629 | 52 | 0.0 | 0.0 | 0.04 | 0.33 | 0.25 | 99 | 1008.1 | |
| 20260506144153 | 52 | 0.0 | 0.0 | 0.04 | 0.33 | 0.25 | 99 | 1008.0 | |
| 20260506143712 | 52 | 0.0 | 0.0 | 0.04 | 0.32 | 0.24 | 99 | 1008.1 | |
| 20260506143011 | 52 | 0.0 | 0.0 | 0.05 | 0.32 | 0.24 | 98 | 1008.3 | |
| 20260506142528 | 52 | 0.0 | 0.0 | 0.05 | 0.31 | 0.23 | 98 | 1008.1 | |
| 20260506142046 | 52 | 0.0 | 0.0 | 0.05 | 0.31 | 0.23 | 99 | 1008.1 | |
| 20260506141625 | 53 | 0.0 | 0.0 | 0.05 | 0.31 | 0.23 | 99 | 1008.1 | |
| 20260506141126 | 53 | 0.0 | 0.0 | 0.05 | 0.31 | 0.23 | 99 | 1007.9 | |
| 20260506140723 | 53 | 0.0 | 1.7 | 0.06 | 0.31 | 0.23 | 99 | 1007.8 | |
| 20260506140155 | 52 | 0.0 | 0.9 | 0.05 | 0.30 | 0.22 | 99 | 1007.8 | |
| 20260506135737 | 52 | 0.0 | 0.9 | 0.05 | 0.30 | 0.22 | 99 | 1007.9 | |
| 20260506135036 | 52 | 0.0 | 1.7 | 0.06 | 0.30 | 0.22 | 99 | 1007.8 | |
| 20260506134534 | 52 | 0.0 | 0.9 | 0.05 | 0.29 | 0.21 | 99 | 1008.0 | |
| 20260506134049 | 52 | 0.0 | 0.0 | 0.05 | 0.29 | 0.21 | 99 | 1008.0 | |
| 20260506133613 | 52 | 0.0 | 0.0 | 0.04 | 0.28 | 0.20 | 99 | 1008.3 | |
| 20260506133124 | 52 | 0.0 | 0.0 | 0.03 | 0.27 | 0.19 | 99 | 1008.5 | |
| 20260506132720 | 52 | 0.0 | 0.9 | 0.02 | 0.26 | 0.18 | 99 | 1008.6 | |
| 20260506131506 | 52 | 0.0 | 0.9 | 0.02 | 0.26 | 0.18 | 99 | 1008.5 | |
| 20260506131025 | 52 | 0.0 | 1.7 | 0.02 | 0.26 | 0.18 | 100 | 1008.4 | |
| 20260506130544 | 52 | 0.0 | 0.9 | 0.01 | 0.25 | 0.17 | 99 | 1008.5 | |
| 20260506130056 | 52 | 0.0 | 0.9 | 0.01 | 0.25 | 0.17 | 99 | 1008.5 | |
| 20260506125617 | 51 | 0.0 | 0.9 | 0.01 | 0.25 | 0.17 | 99 | 1008.5 | |
| 20260506125204 | 51 | 0.0 | 0.9 | 0.00 | 0.24 | 0.16 | 99 | 1008.4 | |
| 20260506124658 | 51 | 113 | 0.9 | 0.9 | 0.00 | 0.24 | 0.16 | 99 | 1008.4 |
| 20260506124210 | 51 | 0.0 | 0.9 | 0.00 | 0.24 | 0.16 | 99 | 1008.4 | |
| 20260506123506 | 51 | 113 | 0.9 | 0.9 | 0.00 | 0.24 | 0.16 | 99 | 1008.6 |
| 20260506123049 | 51 | 0.0 | 0.9 | 0.00 | 0.24 | 0.16 | 99 | 1008.8 | |
| 20260506122513 | 51 | 0.0 | 1.7 | 0.00 | 0.24 | 0.16 | 99 | 1008.6 | |
| 20260506122034 | 51 | 0.0 | 0.9 | 0.00 | 0.24 | 0.16 | 99 | 1008.6 | |
| 20260506121550 | 52 | 0.0 | 0.9 | 0.00 | 0.24 | 0.16 | 99 | 1008.6 | |
| 20260506121137 | 51 | 0.0 | 0.9 | 0.00 | 0.24 | 0.16 | 99 | 1008.4 | |
| 20260506120645 | 51 | 0.0 | 0.0 | 0.00 | 0.24 | 0.16 | 99 | 1008.5 | |
| 20260506120147 | 51 | 0.0 | 0.9 | 0.00 | 0.24 | 0.16 | 99 | 1008.6 | |
| 20260506115703 | 52 | 0.0 | 0.9 | 0.00 | 0.24 | 0.16 | 99 | 1008.5 | |
| 20260506115322 | 52 | 0.0 | 0.9 | 0.00 | 0.24 | 0.16 | 99 | 1008.6 | |
| 20260506114516 | 52 | 0.0 | 0.9 | 0.00 | 0.24 | 0.16 | 99 | 1008.7 | |
| 20260506114036 | 52 | 0.0 | 1.7 | 0.00 | 0.24 | 0.16 | 99 | 1008.6 | |
| 20260506113613 | 52 | 158 | 0.9 | 3.5 | 0.00 | 0.24 | 0.16 | 99 | 1008.6 |
| 20260506113114 | 52 | 0.0 | 0.9 | 0.00 | 0.24 | 0.16 | 99 | 1008.7 | |
| 20260506112632 | 52 | 0.0 | 0.0 | 0.00 | 0.24 | 0.16 | 99 | 1008.8 | |
| 20260506112151 | 52 | 315 | 0.9 | 2.6 | 0.00 | 0.24 | 0.16 | 99 | 1008.8 |
| 20260506111715 | 52 | 315 | 0.9 | 2.6 | 0.00 | 0.24 | 0.16 | 99 | 1008.9 |
| 20260506111009 | 52 | 0.0 | 0.0 | 0.00 | 0.24 | 0.16 | 99 | 1008.8 | |
| 20260506110522 | 52 | 0.0 | 0.0 | 0.00 | 0.24 | 0.16 | 99 | 1008.7 | |
| 20260506110100 | 51 | 0.0 | 0.0 | 0.00 | 0.24 | 0.16 | 99 | 1008.9 | |
| 20260506105642 | 51 | 0.0 | 0.9 | 0.00 | 0.24 | 0.16 | 99 | 1009.1 | |
| 20260506105115 | 51 | 0.0 | 0.9 | 0.00 | 0.24 | 0.16 | 99 | 1009.2 | |
| 20260506104636 | 51 | 0.0 | 1.7 | 0.00 | 0.24 | 0.16 | 99 | 1009.1 | |
| 20260506104150 | 51 | 0.0 | 0.0 | 0.00 | 0.24 | 0.16 | 99 | 1008.9 | |
| 20260506103715 | 51 | 0.0 | 0.0 | 0.00 | 0.24 | 0.16 | 99 | 1008.9 | |
| 20260506103010 | 51 | 0.0 | 0.9 | 0.00 | 0.24 | 0.16 | 99 | 1009.1 | |
| 20260506102523 | 51 | 315 | 0.9 | 2.6 | 0.00 | 0.24 | 0.16 | 99 | 1009.2 |
| 20260506102047 | 51 | 315 | 0.9 | 1.7 | 0.00 | 0.24 | 0.16 | 99 | 1009.0 |
| 20260506101606 | 51 | 0.0 | 0.9 | 0.00 | 0.24 | 0.16 | 99 | 1009.0 | |
| 20260506101127 | 51 | 0.0 | 0.9 | 0.00 | 0.24 | 0.16 | 99 | 1008.8 | |
| 20260506100701 | 51 | 0.0 | 0.0 | 0.00 | 0.24 | 0.16 | 99 | 1009.0 | |
| 20260506100038 | 51 | 0.0 | 0.0 | 0.00 | 0.24 | 0.16 | 99 | 1009.4 | |
| 20260506095017 | 51 | 0.0 | 0.0 | 0.00 | 0.24 | 0.16 | 99 | 1009.3 | |
| 20260506094534 | 51 | 0.0 | 0.0 | 0.00 | 0.24 | 0.16 | 99 | 1009.3 | |
| 20260506094054 | 51 | 0.0 | 0.9 | 0.00 | 0.24 | 0.16 | 99 | 1009.3 | |
| 20260506093614 | 51 | 0.0 | 1.7 | 0.00 | 0.24 | 0.16 | 99 | 1009.4 | |
| 20260506093056 | 51 | 0.0 | 0.0 | 0.00 | 0.24 | 0.16 | 99 | 1009.5 | |
| 20260506092606 | 51 | 0.0 | 0.0 | 0.00 | 0.24 | 0.16 | 98 | 1009.7 | |
| 20260506092132 | 51 | 0.0 | 0.0 | 0.00 | 0.24 | 0.16 | 98 | 1009.5 | |
| 20260506091715 | 51 | 0.0 | 0.0 | 0.00 | 0.24 | 0.16 | 98 | 1009.5 | |
| 20260506091241 | 51 | 0.0 | 0.9 | 0.00 | 0.24 | 0.16 | 99 | 1009.7 | |
| 20260506090504 | 51 | 315 | 0.9 | 2.6 | 0.00 | 0.24 | 0.16 | 98 | 1009.9 |
| 20260506090042 | 51 | 0.0 | 2.6 | 0.00 | 0.24 | 0.16 | 99 | 1010.0 | |
| 20260506085543 | 51 | 0.0 | 0.0 | 0.00 | 0.24 | 0.16 | 98 | 1009.7 | |
| 20260506085103 | 51 | 0.0 | 0.0 | 0.00 | 0.24 | 0.16 | 98 | 1009.5 | |
| 20260506084616 | 51 | 0.0 | 0.0 | 0.00 | 0.24 | 0.16 | 98 | 1009.7 | |
| 20260506084136 | 51 | 0.0 | 0.0 | 0.01 | 0.24 | 0.16 | 98 | 1009.9 | |
| 20260506083651 | 51 | 0.0 | 0.9 | 0.02 | 0.24 | 0.16 | 98 | 1009.9 | |
| 20260506083228 | 51 | 0.0 | 0.9 | 0.03 | 0.24 | 0.16 | 98 | 1010.0 | |
| 20260506082509 | 52 | 0.0 | 1.7 | 0.03 | 0.24 | 0.16 | 98 | 1010.1 | |
| 20260506082048 | 52 | 315 | 0.9 | 2.6 | 0.03 | 0.24 | 0.16 | 98 | 1010.3 |
| 20260506081542 | 52 | 315 | 0.9 | 2.6 | 0.03 | 0.24 | 0.16 | 98 | 1010.5 |
| 20260506081058 | 52 | 0.0 | 1.7 | 0.03 | 0.24 | 0.16 | 98 | 1010.0 | |
| 20260506080623 | 52 | 0.0 | 0.9 | 0.03 | 0.24 | 0.16 | 98 | 1010.3 | |
| 20260506080136 | 52 | 315 | 0.9 | 1.7 | 0.03 | 0.24 | 0.16 | 98 | 1010.2 |
| 20260506073111 | 52 | 0.0 | 1.7 | 0.01 | 0.21 | 0.13 | 97 | 1010.6 | |
| 20260506072627 | 52 | 0.0 | 0.0 | 0.02 | 0.21 | 0.13 | 97 | 1010.3 | |
| 20260506072140 | 52 | 0.0 | 0.0 | 0.03 | 0.21 | 0.13 | 97 | 1010.5 | |
| 20260506071702 | 52 | 0.0 | 0.0 | 0.03 | 0.21 | 0.13 | 96 | 1010.6 | |
| 20260506071228 | 52 | 0.0 | 1.7 | 0.04 | 0.21 | 0.13 | 96 | 1010.5 | |
| 20260506070521 | 52 | 0.0 | 1.7 | 0.06 | 0.21 | 0.13 | 96 | 1010.7 | |
| 20260506062046 | 53 | 315 | 0.9 | 2.6 | 0.05 | 0.18 | 0.10 | 91 | 1010.3 |
| 20260506061601 | 54 | 338 | 2.6 | 7.0 | 0.05 | 0.18 | 0.10 | 91 | 1010.1 |
| 20260506061119 | 53 | 315 | 5.2 | 8.7 | 0.04 | 0.17 | 0.09 | 91 | 1010.5 |
| 20260506060644 | 53 | 315 | 3.5 | 5.2 | 0.02 | 0.15 | 0.07 | 92 | 1010.7 |
| 20260506060202 | 54 | 315 | 2.6 | 5.2 | 0.02 | 0.15 | 0.07 | 91 | 1010.4 |
| 20260506051104 | 53 | 338 | 6.1 | 9.6 | 0.05 | 0.13 | 0.05 | 92 | 1010.2 |
| 20260506050544 | 53 | 338 | 5.2 | 12.2 | 0.05 | 0.13 | 0.05 | 92 | 1010.3 |
| 20260506044651 | 55 | 315 | 7.0 | 11.3 | 0.01 | 0.09 | 0.01 | 92 | 1010.4 |
| 20260506044222 | 55 | 315 | 3.5 | 12.2 | 0.01 | 0.09 | 0.01 | 92 | 1010.1 |
| 20260506043519 | 56 | 338 | 7.0 | 12.2 | 0.01 | 0.09 | 0.01 | 91 | 1010.0 |
| 20260506043038 | 57 | 338 | 6.1 | 10.4 | 0.02 | 0.09 | 0.01 | 92 | 1009.9 |
| 20260506042851 | 55 | 315 | 4.3 | 9.6 | 0.02 | 0.08 | 0.00 | 98 | 1009.4 |
| 20260506040251 | 53 | 0.0 | 0.0 | 0.02 | 0.08 | 0.00 | 98 | 1008.8 | |
| 20260506035546 | 53 | 0.0 | 0.0 | 0.02 | 0.08 | 0.08 | 98 | 1008.9 | |
| 20260506035043 | 53 | 0.0 | 0.0 | 0.02 | 0.08 | 0.08 | 99 | 1008.6 | |
| 20260506034557 | 53 | 0.0 | 0.0 | 0.02 | 0.08 | 0.08 | 98 | 1008.5 | |
| 20260506034118 | 53 | 0.0 | 0.0 | 0.02 | 0.08 | 0.08 | 99 | 1008.7 | |
| 20260506033639 | 53 | 0.0 | 0.0 | 0.02 | 0.08 | 0.08 | 99 | 1008.8 | |
| 20260506033220 | 53 | 0.0 | 0.0 | 0.01 | 0.07 | 0.07 | 98 | 1009.1 | |
| 20260506032715 | 53 | 0.0 | 0.0 | 0.00 | 0.06 | 0.06 | 98 | 1009.2 | |
| 20260506032039 | 53 | 0.0 | 0.0 | 0.00 | 0.06 | 0.06 | 98 | 1008.9 | |
| 20260506031532 | 53 | 0.0 | 0.0 | 0.00 | 0.06 | 0.06 | 98 | 1008.6 | |
| 20260506031046 | 53 | 0.0 | 0.0 | 0.00 | 0.06 | 0.06 | 98 | 1008.5 | |
| 20260506030607 | 53 | 0.0 | 0.0 | 0.00 | 0.06 | 0.06 | 98 | 1008.5 | |
| 20260506030125 | 53 | 0.0 | 0.0 | 0.00 | 0.06 | 0.06 | 98 | 1008.7 | |
| 20260506025648 | 53 | 0.0 | 0.0 | 0.00 | 0.06 | 0.06 | 98 | 1008.6 | |
| 20260506025204 | 53 | 0.0 | 0.0 | 0.00 | 0.06 | 0.06 | 98 | 1008.5 | |
| 20260506024518 | 53 | 0.0 | 0.9 | 0.00 | 0.06 | 0.06 | 97 | 1008.5 | |
| 20260506024014 | 53 | 0.0 | 0.9 | 0.00 | 0.06 | 0.06 | 97 | 1008.5 | |
| 20260506023531 | 53 | 0.0 | 1.7 | 0.00 | 0.06 | 0.06 | 98 | 1008.4 | |
| 20260506023054 | 53 | 135 | 0.9 | 1.7 | 0.00 | 0.06 | 0.06 | 97 | 1008.4 |
| 20260506022612 | 54 | 0.0 | 0.0 | 0.00 | 0.06 | 0.06 | 97 | 1008.5 | |
| 20260506022129 | 54 | 0.0 | 0.0 | 0.00 | 0.06 | 0.06 | 97 | 1008.3 | |
| 20260506021650 | 54 | 0.0 | 0.9 | 0.00 | 0.06 | 0.06 | 97 | 1008.2 | |
| 20260506021212 | 54 | 0.0 | 0.0 | 0.00 | 0.06 | 0.06 | 97 | 1008.3 | |
| 20260506020726 | 54 | 0.0 | 0.9 | 0.00 | 0.06 | 0.06 | 97 | 1008.4 | |
| 20260506020025 | 55 | 0.0 | 0.0 | 0.00 | 0.06 | 0.06 | 97 | 1008.5 | |
| 20260506015616 | 55 | 0.0 | 0.0 | 0.00 | 0.06 | 0.06 | 97 | 1008.5 | |
| 20260506015053 | 55 | 0.0 | 0.9 | 0.00 | 0.06 | 0.06 | 97 | 1008.3 | |
| 20260506014613 | 55 | 0.0 | 0.0 | 0.00 | 0.06 | 0.06 | 97 | 1008.3 | |
| 20260506014130 | 55 | 0.0 | 0.9 | 0.00 | 0.06 | 0.06 | 97 | 1008.2 | |
| 20260506013654 | 55 | 135 | 0.9 | 1.7 | 0.00 | 0.06 | 0.06 | 96 | 1008.2 |
| 20260506013259 | 56 | 135 | 0.9 | 1.7 | 0.00 | 0.06 | 0.06 | 97 | 1008.1 |
| 20260506012521 | 56 | 0.0 | 0.9 | 0.00 | 0.06 | 0.06 | 97 | 1008.3 | |
| 20260506012029 | 56 | 135 | 0.9 | 1.7 | 0.00 | 0.06 | 0.06 | 97 | 1008.4 |
| 20260506011548 | 56 | 135 | 0.9 | 1.7 | 0.00 | 0.06 | 0.06 | 97 | 1008.2 |
| 20260506011102 | 56 | 135 | 0.9 | 1.7 | 0.00 | 0.06 | 0.06 | 97 | 1008.3 |
| 20260506010620 | 56 | 135 | 0.9 | 1.7 | 0.00 | 0.06 | 0.06 | 96 | 1008.4 |
| 20260506010142 | 56 | 135 | 0.9 | 1.7 | 0.00 | 0.06 | 0.06 | 96 | 1008.1 |
| 20260506005740 | 56 | 158 | 0.9 | 3.5 | 0.00 | 0.06 | 0.06 | 97 | 1008.3 |
| 20260506005001 | 56 | 180 | 0.9 | 1.7 | 0.00 | 0.06 | 0.06 | 97 | 1008.3 |
| 20260506004514 | 56 | 180 | 0.9 | 1.7 | 0.00 | 0.06 | 0.06 | 97 | 1008.0 |
| 20260506004035 | 56 | 180 | 0.9 | 1.7 | 0.00 | 0.06 | 0.06 | 96 | 1007.8 |
| 20260506003557 | 57 | 180 | 0.9 | 1.7 | 0.00 | 0.06 | 0.06 | 96 | 1007.8 |
| 20260506003116 | 57 | 180 | 0.9 | 1.7 | 0.00 | 0.06 | 0.06 | 96 | 1007.8 |
| 20260506002630 | 57 | 0.0 | 1.7 | 0.00 | 0.06 | 0.06 | 95 | 1007.8 | |
| 20260506002149 | 57 | 158 | 0.9 | 1.7 | 0.00 | 0.06 | 0.06 | 95 | 1007.7 |
| 20260506001707 | 57 | 158 | 0.9 | 1.7 | 0.00 | 0.06 | 0.06 | 95 | 1007.7 |
| 20260506001008 | 57 | 0.0 | 0.9 | 0.00 | 0.06 | 0.06 | 95 | 1007.5 | |
| 20260506000524 | 57 | 0.0 | 2.6 | 0.00 | 0.06 | 0.06 | 95 | 1007.3 | |
| 20260506000041 | 57 | 135 | 0.9 | 2.6 | 0.00 | 0.06 | 0.06 | 95 | 1007.3 |
| 20260505235559 | 57 | 203 | 0.9 | 2.6 | 0.00 | 0.06 | 0.06 | 95 | 1007.3 |
| 20260505235120 | 57 | 203 | 0.9 | 1.7 | 0.00 | 0.06 | 0.06 | 94 | 1007.1 |
| 20260505234640 | 58 | 158 | 0.9 | 2.6 | 0.00 | 0.06 | 0.06 | 94 | 1007.1 |
| 20260505233714 | 58 | 158 | 0.9 | 2.6 | 0.00 | 0.06 | 0.06 | 93 | 1006.9 |
| 20260505233006 | 58 | 0.0 | 1.7 | 0.00 | 0.06 | 0.06 | 93 | 1007.0 | |
| 20260505232527 | 58 | 225 | 0.9 | 2.6 | 0.00 | 0.06 | 0.06 | 92 | 1007.3 |
| 20260505232047 | 58 | 203 | 0.9 | 3.5 | 0.00 | 0.06 | 0.06 | 92 | 1007.0 |
| 20260505231630 | 58 | 0.0 | 0.9 | 0.00 | 0.06 | 0.06 | 92 | 1006.7 | |
| 20260505231118 | 58 | 203 | 0.9 | 2.6 | 0.00 | 0.06 | 0.06 | 92 | 1006.8 |
| 20260505230643 | 58 | 203 | 0.9 | 3.5 | 0.00 | 0.06 | 0.06 | 92 | 1006.8 |
| 20260505230035 | 58 | 0.0 | 1.7 | 0.00 | 0.06 | 0.06 | 93 | 1006.8 | |
| 20260505225036 | 58 | 0.0 | 1.7 | 0.00 | 0.06 | 0.06 | 93 | 1006.8 | |
| 20260505224534 | 58 | 0.0 | 0.9 | 0.00 | 0.06 | 0.06 | 92 | 1006.8 | |
| 20260505224056 | 58 | 225 | 0.9 | 1.7 | 0.00 | 0.06 | 0.06 | 91 | 1006.9 |
| 20260505223615 | 58 | 225 | 0.9 | 1.7 | 0.00 | 0.06 | 0.06 | 91 | 1006.7 |
| 20260505223131 | 59 | 225 | 0.9 | 3.5 | 0.00 | 0.06 | 0.06 | 91 | 1006.7 |
| 20260505222646 | 59 | 0.0 | 0.9 | 0.00 | 0.06 | 0.06 | 92 | 1006.5 |